Location: Molveno
(46.1500°N, 10.9667°E)
Time: 08:10:50
(UTC+00:00)

Meteor 1-21 Rocket - Pass Details

Date: 05 July 2020
Orbit: 833 x 907 km, 81.2° (Epoch: 05 August)

Event Time Altitude Azimuth Distance (km) Brightness Sun altitude
Rises 19:47:33 0° 182° (S) 3,504 7.0 -5.9°
Reaches altitude 10° 19:50:00 10° 180° (S) 2,574 6.3 -6.3°
Maximum altitude 19:55:51 72° 98° (E) 953 4.4 -7.0°
Drops below altitude 10° 20:01:47 10° 15° (NNE) 2,601 7.2 -7.7°
Sets 20:04:15 0° 13° (NNE) 3,543 7.9 -8.0°
